Location: Hochstatterhof
(48.7256°N, 10.3487°E)
Time: 21:34:00
(UTC+00:00)

COSMO-SKYMED 1 - Pass Details

Date: 26 September 2023
Orbit: 621 x 623 km, 97.9° (Epoch: 09 December)

Event Time Altitude Azimuth Distance (km) Brightness Sun altitude
Rises 03:49:52 0° 147° (SSE) 2,892 6.2 -13.9°
Reaches altitude 10° 03:52:07 10° 141° (SE) 1,990 5.5 -13.6°
Maximum altitude 03:56:13 44° 69° (ENE) 872 3.9 -12.9°
Drops below altitude 10° 04:00:22 10° 358° (N) 2,006 5.3 -12.3°
Sets 04:02:38 0° 352° (N) 2,918 6.1 -11.9°
